Champaign, IL

6:49 PM CDT on July 18, 2019 (GMT -0500)
Univ Of Illinois-Willard

Weather History for KCMI - May, 2019

Change the Weather History Date:

Sunday, May 5, 2019

  Actual Average Record
Temperature  
Mean Temperature 57 °F 59 °F  
Max Temperature 72 °F 71 °F 88 °F (2012)
Min Temperature 41 °F 47 °F 34 °F (2011)
Degree Days  
Heating Degree Days 8 7  
Month to date heating degree days 36 37  
Since 1 July heating degree days 5799 5701  
Cooling Degree Days 0 1  
Month to date cooling degree days 0 5  
Year to date cooling degree days 3 16  
Growing Degree Days 8 (Base 50)    
Moisture  
Dew Point 45 °F    
Average Humidity 66    
Maximum Humidity 96    
Minimum Humidity 35    
Precipitation  
Precipitation 0.00 in 0.16 in 0.25 in (2011)
Month to date precipitation 0.37 0.81  
Year to date precipitation 12.51 11.42  
Sea Level Pressure  
Sea Level Pressure 29.92 in    
Wind  
Wind Speed 4 mph (WSW)    
Max Wind Speed 10 mph    
Max Gust Speed 15 mph    
Visibility 10 miles    
Events      
T = Trace of Precipitation, MM = Missing Value Source: NWS Daily Summary

Daily Weather History Graph

Daily Weather History Graph

Search for Another Location

Airport or City:

Astronomy

May. 05, 2019 Rise Set
Actual Time 5:48 AM CDT 7:51 PM CDT
Civil Twilight 5:18 AM CDT 8:21 PM CDT
Nautical Twilight 4:42 AM CDT 8:57 PM CDT
Astronomical Twilight 4:03 AM CDT 9:37 PM CDT
Moon 6:32 AM CDT (5/5) 8:44 PM CDT (5/5)
Length of Visible Light 15h 02m
Length of Day
14h 03m
New Moon, 1% of the Moon is Illuminated
May 5
New Moon
May 11
First Quarter
May 18
Full
May 26
Last Quarter
Jun 3
New

Hourly Weather History & Observations

Time (CDT) Temp. Windchill Dew Point Humidity Pressure Visibility Wind Dir Wind Speed Gust Speed Precip Events Conditions
12:53 AM 46.9 °F - 42.1 °F 83% 29.91 in 10.0 mi NE 6.9 mph - N/A   Clear
1:53 AM 46.0 °F 43.1 °F 42.1 °F 86% 29.90 in 10.0 mi NNE 5.8 mph - N/A   Clear
2:53 AM 46.9 °F - 41.0 °F 80% 29.91 in 10.0 mi NNE 4.6 mph - N/A   Clear
3:53 AM 44.1 °F 41.5 °F 41.0 °F 89% 29.91 in 10.0 mi NE 4.6 mph - N/A   Clear
4:53 AM 44.1 °F 41.5 °F 41.0 °F 89% 29.91 in 10.0 mi ENE 4.6 mph - N/A   Clear
5:53 AM 43.0 °F - 41.0 °F 93% 29.91 in 10.0 mi Calm Calm - N/A   Clear
6:53 AM 46.0 °F 43.1 °F 44.1 °F 93% 29.93 in 10.0 mi NNW 5.8 mph - N/A   Clear
7:53 AM 53.1 °F - 48.0 °F 83% 29.94 in 10.0 mi Calm Calm - N/A   Clear
8:53 AM 57.9 °F - 48.9 °F 72% 29.94 in 10.0 mi NW 4.6 mph - N/A   Clear
9:53 AM 62.1 °F - 48.9 °F 62% 29.94 in 10.0 mi Variable 3.5 mph - N/A   Clear
10:53 AM 64.0 °F - 48.0 °F 56% 29.94 in 10.0 mi Calm Calm - N/A   Clear
11:53 AM 66.0 °F - 46.0 °F 48% 29.94 in 10.0 mi Calm Calm - N/A   Clear
12:53 PM 68.0 °F - 44.1 °F 42% 29.93 in 10.0 mi Calm Calm - N/A   Clear
1:53 PM 71.1 °F - 45.0 °F 39% 29.91 in 10.0 mi Calm Calm - N/A   Clear
2:53 PM 72.0 °F - 42.1 °F 34% 29.90 in 10.0 mi West 8.1 mph - N/A   Clear
3:53 PM 72.0 °F - 43.0 °F 35% 29.88 in 10.0 mi Variable 3.5 mph - N/A   Clear
4:53 PM 71.1 °F - 43.0 °F 36% 29.88 in 10.0 mi North - - N/A   Clear
5:53 PM 70.0 °F - 41.0 °F 35% 29.88 in 10.0 mi SSW 4.6 mph - N/A   Clear
6:53 PM 69.1 °F - 44.1 °F 40% 29.89 in 10.0 mi SW 9.2 mph - N/A   Clear
7:53 PM 62.1 °F - 48.9 °F 62% 29.90 in 10.0 mi SSW 4.6 mph - N/A   Clear
8:53 PM 57.0 °F - 50.0 °F 77% 29.92 in 10.0 mi SSW 5.8 mph - N/A   Clear
9:53 PM 55.9 °F - 48.0 °F 75% 29.93 in 10.0 mi SSW 5.8 mph - N/A   Clear
10:53 PM 54.0 °F - 48.0 °F 80% 29.94 in 10.0 mi SW 6.9 mph - N/A   Clear
11:53 PM 53.1 °F - 46.9 °F 80% 29.94 in 10.0 mi South 6.9 mph - N/A   Clear